This is the latest recevied weather packets stored in our database for station/object SR9NSK-5. If no packets are shown the sender has not sent any weather packets the latest 1 day(s).
| Time | Temp. | Humidity | Pressure | Rain* | Wind** | Luminosity | Snow |
|---|---|---|---|---|---|---|---|
| 1836274384 | 15° C | 80% | 918.4 hPa | - | 0 m/s | - | - |
| 1836274356 | 14.44° C | 78% | 918.3 hPa | - | 0 m/s | - | - |
| 1836274144 | 15° C | 81% | 918.4 hPa | - | 0 m/s | - | - |
| 1836274114 | 14.44° C | 78% | 918.3 hPa | - | 0 m/s | - | - |
| 1836273904 | 15° C | 82% | 918.4 hPa | - | 0 m/s | - | - |
| 1778028292 | 11.67° C | 58% | 899.9 hPa | - | 0 m/s | - | - |
| 1778028052 | 11.67° C | 57% | 899.8 hPa | - | 0 m/s | - | - |
| 1778027812 | 11.67° C | 57% | 899.9 hPa | - | 0 m/s | - | - |
| 1778027572 | 11.67° C | 57% | 899.9 hPa | - | 0 m/s | - | - |
| 1778027329 | 11.67° C | 57% | 900 hPa | - | 0 m/s | - | - |
| 1778027089 | 11.67° C | 56% | 900 hPa | - | 0 m/s | - | - |
| 1778026849 | 11.67° C | 56% | 900 hPa | - | 0 m/s | - | - |
| 1778026609 | 11.67° C | 56% | 899.9 hPa | - | 0 m/s | - | - |
| 1778026369 | 12.22° C | 56% | 900 hPa | - | 0 m/s | - | - |
| 1778026133 | 12.22° C | 56% | 900.1 hPa | - | 0 m/s | - | - |
| 1778025887 | 12.22° C | 55% | 900 hPa | - | 0 m/s | - | - |
| 1778025647 | 12.22° C | 55% | 900.1 hPa | - | 0 m/s | - | - |
| 1778025405 | 12.22° C | 55% | 900.1 hPa | - | 0 m/s | - | - |
| 1778025165 | 12.22° C | 55% | 900.2 hPa | - | 0 m/s | - | - |
| 1778024923 | 12.22° C | 54% | 900.2 hPa | - | 0 m/s | - | - |
| 1778024683 | 12.22° C | 54% | 900.3 hPa | - | 0 m/s | - | - |
| 1778024443 | 12.22° C | 53% | 900.3 hPa | - | 0 m/s | - | - |
| 1778024203 | 12.22° C | 53% | 900.4 hPa | - | 0 m/s | - | - |
| 1778023963 | 12.78° C | 53% | 900.5 hPa | - | 0 m/s | - | - |
| 1778023721 | 12.78° C | 53% | 900.3 hPa | - | 0 m/s | - | - |
* Rain since midnight (hover to see other rain measurements)
** Current wind speed in m/s (hover to see current wind gust speed)